Regional Weather Roundup
Issued by NWS

Home | Current Version | Previous Version | Text Only | Print | Product List | Glossary On
Versions: 1 2 3 4 5 6 7 8 9 10 11 12 13 14 15 16 17 18 19 20 21 22 23 24 25 26
000
ASUS42 KTBW 161910
RWRFL
FLORIDA REGIONAL WEATHER ROUNDUP
NATIONAL WEATHER SERVICE TAMPA BAY RUSKIN FL
300 PM EDT WED APR 16 2014

NOTE: "FAIR" INDICATES FEW OR NO CLOUDS BELOW 12,000 FEET WITH NO
SIGNIFICANT WEATHER AND/OR OBSTRUCTIONS TO VISIBILITY.


FLZ001>010-012>015-112-114-115-162000-
PANHANDLE FLORIDA

CITY           SKY/WX    TMP DP  RH WIND       PRES   REMARKS
PENSACOLA      SUNNY     62  34  35 NE7       30.17F
PENSACOLA NAS  SUNNY     61  40  45 E7        30.17F
MILTON NAS     SUNNY     63  36  36 SE7       30.17F
CRESTVIEW      SUNNY     66  38  35 NE10      30.19F
DUKE FIELD     SUNNY     64  36  34 VRB7      30.16F
VALPARAISO     SUNNY     63  45  50 E9        30.17F
MARY ESTHER    SUNNY     65  33  30 S8        30.15F
TRI COUNTY     FAIR      63  41  44 NE9       30.19F
PANAMA CITY    FAIR      66  41  40 NE8G16    30.15F
TYNDALL AFB    SUNNY     66  52  60 E8        30.15F
APALACHICOLA   SUNNY     64  49  57 SE18      30.16F

STATION/POSITION SKY/WX   TEMP    WIND        PRES    WAVE   SWELL
                          AIR SEA DIR/SP/G            HT/PER HT/PER
                          (F)     (DEG/KT/KT) (MB)    (FT/S) (FT/S)
30.1N   87.6W              53 66   70/ 14/ 16 1022.0F   3/ 6
29.2N   88.2W              56      60/ 12     1022.1F
28.8N   86.0W              59 70   70/ 14/ 19 1020.9F   5/ 7
PANAMA CITY BEAC           62 67   20/  8/ 12 1021.3F
CAPE SAN BLAS    NOT AVBL
TOWER C                    57      70/ 19/ 21 1020.9F
28.5N   84.5W              60 69   70/ 16/ 21 1020.0F   5/ 6

$$
FLZ011-016>038-118-127-128-134-139-239-162000-
NORTH FLORIDA

CITY           SKY/WX    TMP DP  RH WIND       PRES   REMARKS
MARIANNA       SUNNY     63  40  42 E14       30.19F
TALLAHASSEE    SUNNY     67  43  41 E8G17     30.18F
PERRY          SUNNY     64  45  48 E7G20     30.18S
CROSS CITY       N/A     70  49  47 NE9G20    30.14F
GAINESVILLE    PTSUNNY   66  50  56 E13G23    30.16F
MAYPORT NAS    PTSUNNY   62  49  62 NE22G29   30.22F
JACKSONVILLE   PTSUNNY   61  49  64 NE20G29   30.22F
JAX NAS        PTSUNNY   64  48  56 NE15G29   30.21F
JAX CRAIG      PTSUNNY   63  49  60 NE15G24   30.21F
JAX CECIL      CLOUDY    61  48  63 NE12G24   30.21F
FERNANDINA BEA CLOUDY    61  48  63 NE14G26   30.22F
ST AUGUSTINE   PTSUNNY   64  53  67 N21G26    30.20F

STATION/POSITION SKY/WX   TEMP    WIND        PRES    WAVE   SWELL
                          AIR SEA DIR/SP/G            HT/PER HT/PER
                          (F)     (DEG/KT/KT) (MB)    (FT/S) (FT/S)
SHELL POINT                62      80/  3/  7 1021.2F
KEATON BEACH               65      70/ 11/ 16 1021.1F
CEDAR KEY                  64      90/ 15/ 17 1020.8F
FERNANDINA                 58 66   40/ 12/ 21 1023.1F
30.7N   81.3W                 65                N/A     6/ 7
MAYPORT                    58 65   40/ 22/ 27   N/A
31.4N   80.9W              55 63   40/ 21/ 27 1024.1F   6/ 5   2/ 8
ST AUGUSTINE               60      10/ 23/ 25 1022.5F

$$
FLZ040-043>046-052-053-057-058-063-144-162000-
INTERIOR CENTRAL FLORIDA

CITY           SKY/WX    TMP DP  RH WIND       PRES   REMARKS
OCALA          PTSUNNY   70  52  52 E10G18    30.13F
THE VILLAGES     N/A     73  55  53 NE13G20   30.12S
LEESBURG       SUNNY     74  56  53 NE16G26   30.12F
SANFORD        CLOUDY    73  58  59 NE16G24   30.12F
ORLANDO EXEC   PTSUNNY   73  57  57 NE14G22   30.10F
ORLANDO INTL   PTSUNNY   76  58  53 NE18G29   30.09F
KISSIMMEE      PTSUNNY   75  61  60 NE10G22   30.10F
WINTER HAVEN   MOSUNNY   75  56  51 E12       30.10F
LAKELAND       PTSUNNY   75  52  43 E15G21    30.09F
BARTOW         MOSUNNY   73  55  53 E12G21    30.10F
OKEECHOBEE     CLOUDY    75  61  60 NE12G18   30.07F

$$
FLZ041-047-054-059-064-141-147-162000-
EAST CENTRAL FLORIDA

CITY           SKY/WX    TMP DP  RH WIND       PRES   REMARKS
ORMOND BEACH   PTSUNNY   66  55  68 NE20G28   30.16F
DAYTONA BEACH  PTSUNNY   68  55  63 N22G32    30.15S
NEW SMYRNA BEA PTSUNNY   70  57  64 N21G36    30.15F
JFK SPACE CTR  PTSUNNY   73  59  60 NE10G21   30.11S
CAPE CANAVERAL PTSUNNY   74  59  60 NE14G21   30.10S
PATRICK AFB    PTSUNNY   73  62  69 NE21      30.10S
MELBOURNE      CLOUDY    74  61  63 NE17      30.09S
VERO BEACH     CLOUDY    75  63  66 N14G22    30.08F
FT PIERCE      CLOUDY    74  62  66 NE9       30.07F
STUART         CLOUDY    73  66  78 N12       30.08F

STATION/POSITION SKY/WX   TEMP    WIND        PRES    WAVE   SWELL
                          AIR SEA DIR/SP/G            HT/PER HT/PER
                          (F)     (DEG/KT/KT) (MB)    (FT/S) (FT/S)
28.5N   80.2W              70 74   40/ 17/ 21 1019.4F
28.9N   78.5W              71 76   30/ 19/ 23 1019.1F   7/ 8
TRIDENT PIER               73 75   50/ 13/ 18 1018.9S
28.4N   80.5W                 74                N/A     3/ 8
27.6N   80.2W                 73                N/A     4/ 8

$$
FLZ050-056-061-142-242-148-248-149-249-151-251-155-255-
160-260-162000-
WEST CENTRAL FLORIDA

CITY           SKY/WX    TMP DP  RH WIND       PRES   REMARKS
CRYSTAL RIVER  FAIR      73  50  43 E12G22    30.10F
INVERNESS      MOCLDY    73  52  46 E12       30.11F
BROOKSVILLE    SUNNY     74  50  42 NE13G24   30.09F
ZEPHYRHILLS    FAIR      73  46  38 E13G18    30.09F
CLEARWATER     SUNNY     74  50  42 E10       30.08F
TAMPA INTL     MOSUNNY   73  47  39 E9G17     30.08F
TAMPA EXEC     SUNNY     77  46  33 E10G18    30.09F
PLANT CITY     SUNNY     77  48  36 E14G24    30.09F
MACDILL AFB    SUNNY     74  55  51 E14G20    30.07F
PETER O KNIGHT SUNNY     77  52  41 NE15      30.08F
ST PETERSBURG  SUNNY     72  56  57 E12       30.07F
SARASOTA       MOSUNNY   74  56  53 E14       30.05F
VENICE         FAIR      73  59  60 E12G17    30.07S

STATION/POSITION SKY/WX   TEMP    WIND        PRES    WAVE   SWELL
                          AIR SEA DIR/SP/G            HT/PER HT/PER
                          (F)     (DEG/KT/KT) (MB)    (FT/S) (FT/S)
CEDAR KEY                  64      90/ 15/ 17 1020.8F
28.5N   84.5W              60 69   70/ 16/ 21 1020.0F   5/ 6
27.3N   84.3W                 72                N/A     7/ 7
CLEARWATER BEACH           70 72   60/ 10/ 14 1018.1F
MIDDLE TAMPA BAY           69      80/ 12/ 16 1018.5F
VENICE                     69 75   80/ 12/ 17 1017.7F

$$
FLZ066-069-070-075>078-162-262-165-265-162000-
SOUTHWEST FLORIDA AND KEYS

CITY           SKY/WX    TMP DP  RH WIND       PRES   REMARKS
PUNTA GORDA    PTSUNNY   74  58  57 E10       30.08F
FT MYERS       MOSUNNY   74  58  57 E9        30.04F
SOUTHWEST INTL MOSUNNY   72  58  61 E10       30.05F
NAPLES         PTSUNNY   75  65  70 E9        30.03F
MARATHON       PTSUNNY   82  70  66 NE10      30.01F
KEY WEST NAS   CLOUDY    79  70  74 NE10      30.01F
KEY WEST INTL  PTSUNNY   79  71  76 NE10      30.01F

STATION/POSITION SKY/WX   TEMP    WIND        PRES    WAVE   SWELL
                          AIR SEA DIR/SP/G            HT/PER HT/PER
                          (F)     (DEG/KT/KT) (MB)    (FT/S) (FT/S)
VENICE                     69 75   80/ 12/ 17 1017.7F
NAPLES                     73 77   90/  8/ 10 1017.4F
26.0N   85.6W              66 80   40/ 12/ 16 1018.2F   6/ 8   5/ 8
DRY TORTUGAS     NOT AVBL
NW FL BAY                  80      50/  9/ 10 1017.0F
SOMBRERO KEY               77      20/ 11/ 12 1017.4S
LONG KEY                   78 81   30/ 10/ 11 1017.5F
MOLASSES REEF              76 75   60/ 18/ 20 1016.6F

$$
FLZ067-068-071>074-168-172>174-162000-
SOUTHEAST FLORIDA

CITY           SKY/WX    TMP DP  RH WIND       PRES   REMARKS
W PALM BEACH   CLOUDY    77  65  66 NE14      30.04F
FT LAUDER-EXEC CLOUDY    79  69  71 NE13      30.03F
FT LAUDERDALE  PTSUNNY   80  69  69 NE15      30.02F
POMPANO BEACH  MOSUNNY   80  69  69 NE16      30.03F
PEMBROKE PINES PTSUNNY   83  68  60 NE15      30.04F
OPA LOCKA      PTSUNNY   82  67  60 NE15      30.02F
MIAMI          PTSUNNY   82  67  60 E12       30.02F
WEST KENDALL   PTSUNNY   85  67  54 E12       30.01F
HOMESTEAD      PTSUNNY   80  70  70 E16       30.01F

STATION/POSITION SKY/WX   TEMP    WIND        PRES    WAVE   SWELL
                          AIR SEA DIR/SP/G            HT/PER HT/PER
                          (F)     (DEG/KT/KT) (MB)    (FT/S) (FT/S)
PORT EVERGLADES            76      40/  7/ 14 1017.0
VIRGINIA KEY               78 80   30/ 10/ 13 1016.7F
LAKE WORTH                 74 76   10/ 16/ 18 1016.8F
FOWEY ROCKS                75 79   20/ 16/ 17 1017.2F
SETTLEMENT POINT           75      30/ 14/ 16 1017.7F

$$




USA.gov is the U.S. government's official web portal to all federal, state and local government web resources and services.